Location: *
(48.4333°N, 5.0333°W)
Time: 10:39:08
(UTC+00:00)

SJ-6B - Pass Details

Date: 14 August 2020
Orbit: 509 x 581 km, 97.6° (Epoch: 22 September)

Event Time Altitude Azimuth Distance (km) Brightness Sun altitude
Rises 21:01:50 0° 201° (SSW) 2,757 6.2 -13.1°
Reaches altitude 10° 21:04:26 10° 218° (SW) 1,854 5.5 -13.4°
Maximum altitude 21:07:27 20° 267° (W) 1,306 5.3 -13.8°
Drops below altitude 10° 21:10:27 10° 316° (NW) 1,835 6.9 -14.2°
Sets 21:13:01 0° 334° (NNW) 2,719 7.7 -14.5°
